This is the latest recevied weather packets stored in our database for station/object OM5ZU-10. If no packets are shown the sender has not sent any weather packets the latest 10 day(s).
| Time | Temp. | Humidity | Pressure | Rain* | Wind** | Luminosity | Snow |
|---|---|---|---|---|---|---|---|
| 1788564016 | 16.11° C | 72% | 1012.2 hPa | - | - | - | - |
| 1788563116 | 16.67° C | 72% | 1012.2 hPa | - | - | - | - |
| 1788562216 | 16.67° C | 72% | 1012.1 hPa | - | - | - | - |
| 1788561316 | 16.67° C | 72% | 1012.3 hPa | - | - | - | - |
| 1788560416 | 17.22° C | 72% | 1012.4 hPa | - | - | - | - |
| 1788559516 | 16.67° C | 72% | 1012.4 hPa | - | - | - | - |
| 1788558615 | 17.22° C | 72% | 1012.4 hPa | - | - | - | - |
| 1788557715 | 17.22° C | 72% | 1012.4 hPa | - | - | - | - |
| 1788556815 | 17.78° C | 72% | 1012.2 hPa | - | - | - | - |
| 1788555915 | 18.33° C | 72% | 1012.3 hPa | - | - | - | - |
| 1788555015 | 18.89° C | 72% | 1012.3 hPa | - | - | - | - |
| 1788554115 | 19.44° C | 72% | 1012.4 hPa | - | - | - | - |
| 1788553215 | 20° C | 72% | 1012.6 hPa | - | - | - | - |
| 1788552314 | 20° C | 72% | 1012.6 hPa | - | - | - | - |
| 1788551414 | 20° C | 72% | 1012.6 hPa | - | - | - | - |
| 1788550514 | 21.11° C | 72% | 1012.7 hPa | - | - | - | - |
| 1788549614 | 22.22° C | 72% | 1012.7 hPa | - | - | - | - |
| 1788548714 | 23.33° C | 72% | 1012.7 hPa | - | - | - | - |
| 1788547814 | 22.78° C | 72% | 1012.6 hPa | - | - | - | - |
| 1788546913 | 22.78° C | 72% | 1012.5 hPa | - | - | - | - |
| 1788546013 | 23.33° C | 72% | 1012.6 hPa | - | - | - | - |
| 1788545113 | 22.78° C | 72% | 1012.7 hPa | - | - | - | - |
| 1788544213 | 23.33° C | 72% | 1012.6 hPa | - | - | - | - |
| 1788543313 | 25° C | 72% | 1012.6 hPa | - | - | - | - |
| 1788542413 | 26.11° C | 72% | 1012.5 hPa | - | - | - | - |
* Rain since midnight (hover to see other rain measurements)
** Current wind speed in m/s (hover to see current wind gust speed)